ORCA-7 (49013 NORAD) Tracking and Keplerian Element Data

This shows tracking and keplerian element data for the satellite.

Feedback or suggestion? Click here.




ElementValue
Catalog49013
NameORCA-7
Epoch Orbit457
Epoch Day211.0342578
Epoch Year2021
RAAN136.4492
Inclination51.6293
Eccentricity0.0010573
Argument of Perigee7.2592
Mean Anonmoly352.8537
Mean Motion15.23579211
Decay Rate4.801E-05
L11 49013U 21013C 21211.03425780 .00004801 00000-0 21155-3 0 9990
L22 49013 51.6293 136.4492 0010573 7.2592 352.8537 15.23579211 4570

Live tracking and technical data element details for ORCA-7 (NORAD 49013). ORCA-7 can be tracked NOW for your location showing map with azimuth and elevation plus other details from your city location.

Track the satellite on the map from your city or location and see movement details for azimuth, elevation, latitude, longitude, range, height, and movement on the map or in text.







IsCatalogInMostPopularTable: catalog: 49013, numindb: 1
Update: records affected: 1



GetName: 49013 ORCA-7

Hit Count: updated at: Sat, 31 Jul 2021 14:54:44 GMT